PSLV R/B - Orbit

View from above orbital plane
View from above orbital plane
View from above satellite
View from above satellite

Ground track
Ground track

The orbit data is extracted from the following two-line orbital elements,

1 29713U 07001E   13139.15882761  .00001407  00000-0  18632-3 0   159
2 29713 097.6328 146.6759 0025809 306.0740 053.8083 14.81184004343144
Epoch (UTC): 19 May 2013 03:48:42
Eccentricity: 0.0025809
inclination: 97.6328°
perigee height: 607 km
apogee height: 643 km
right ascension of ascending node: 146.6759°
argument of perigee: 306.0740°
revolutions per day: 14.81184004
mean anomaly at epoch: 53.8083°
orbit number at epoch: 34314

The dashed part of the orbit path shows where the satellite is in the earth's shadow,  

Developed and maintained by Chris Peat, Heavens-Above GmbH. Please read the updated FAQ before sending e-mail. Imprint. DLR